星链-33641 (STARLINK-33641)

导读 | 豆包AI

STARLINK-33641是美国太空探索技术公司星链星座的一员,于2025年4月28日发射入轨,归属星链低轨互联网星座组网计划。星链系统旨在为全球用户提供全天候、低时延的宽带互联网接入服务,该卫星的发射进一步扩充了星链星座的在轨卫星规模,推进了全球覆盖组网进程。

Basic Information
目录编号:
63718
目录名称:
STARLINK-33641
国际标识:
2025-087X
轨道中心:
EARTH
卫星名称:
星链-33641
卫星全名:
星链-33641 (STARLINK-33641)
卫星状态:
在轨 (已飞行320 天)
发射日期:
2025-04-28 UTC
国别 :
美国 (US)
星等 :
--
Orbit Information
数据来源 国际轨道数据 AOE轨道数据
星历时间 2026-03-14T22:54:49+0800
7小时前
查看轨道信息
2026-03-11T10:00:00+0800
3天前
查看轨道信息
半长轴 6853.382km 6853.379km
偏心率 0.0001179 0.0001218
轨道倾角 53.158° 53.157°
近地点辐角 67.742° 73.538°
升交点赤经 196.718° 213.152°
平近点角 292.370° 225.473°
近地点 474.436km 474.407km
远地点 476.054km 476.077km
周期 94.106分钟 94.106分钟
每日圈数 15.301903 15.301911
Detailed Information
固有亮度:
5
最大亮度:
2.5
卫星平台:
Starlink V1.0
覆盖范围:
全球
运营商:
太空探索技术公司
运营商所在国:
美国
制造商(研发单位):
太空探索技术公司
制造商所在国:
美国
使用方式:
暂无
Satellite Introduction
Starlink 计划是 SpaceX 推出的全球卫星互联网项目,通过发射低轨道卫星,为全球尤其是偏远地区提供高速、低延迟的互联网服务。自 2019 年起,Starlink 已部署数千颗卫星,旨在缩小全球数字鸿沟,推动互联网普及。该项目还为军事、航空等行业提供通信支持,带来广泛经济效益。
2D Orbit Map
3D Orbit Map
Orbit Altitude Analysis Chart
Orbit Inclination Analysis Chart
Orbit Comprehensive Analysis Chart
View Comprehensive Chart